Location: Newark
(46.1292°N, 1.0086°W)
Time: 02:31:57
(UTC+00:00)

Transit 4A - Pass Details

Date: 25 November 2019
Orbit: 870 x 975 km, 66.8° (Epoch: 09 December)

Event Time Altitude Azimuth Distance (km) Brightness Sun altitude
Exits shadow 04:31:39 31° 357° (N) 1,520 8.9 -28.3°
Maximum altitude 04:33:59 45° 48° (NE) 1,186 8.7 -27.9°
Drops below altitude 10° 04:39:32 10° 121° (ESE) 2,516 10.9 -26.9°
Sets 04:42:06 0° 127° (SE) 3,447 11.7 -26.5°
